Regional Weather Roundup
Issued by NWS Sterling, VA

Home | Current Version | Previous Version | Graphics & Text | Print | Product List | Glossary On
Versions: 1 2 3 4 5 6 7 8 9 10 11 12 13 14 15 16 17 18 19 20 21 22 23 24 25 26 27 28 29 30 31 32 33 34 35 36 37 38 39 40 41 42 43 44 45 46 47 48 49 50
000
ASUS41 KLWX 272310
RWRLWX

REGIONAL WEATHER ROUNDUP
NATIONAL WEATHER SERVICE BALTIMORE MD/WASHINGTON DC
700 PM EDT WED AUG 27 2014

Note: "FAIR" indicates few or no clouds below 12,000 feet
with no significant weather and/or obstructions to visibility.
 TC=TEMPERATURE CELSIUS

 * =Non NWS site. Station does not report precipitation (e.g. rain,
    snow, etc.), thunder, or fog.

DCZ001-MDZ009-015-VAZ040>042-051-053>054-280000-
WASHINGTON METRO
  /KDAA//-FT BELVOIR

CITY           SKY/WX    TMP DP  RH WIND       PRES   REMARKS
WASHINGTON NAT PTCLDY    89  64  43 W8        29.92F HX  90
DULLES         PTCLDY    84  66  54 W5        29.93F
ANDREWS AFB    CLEAR     83  67  59 SW9       29.93F
QUANTICO       CLEAR     83  68  60 SW5       29.93F
COLLEGE PARK*  CLEAR     88  63  42 CALM      29.92F
LEESBURG*      CLEAR     86  72  62 SW5       29.94F HX  92
MANASSAS*      CLEAR     84  70  61 CALM      29.93F
GAITHERSBURG*  PTCLDY    82  68  61 CALM      29.97S

$$

MDZ006>007-011-014-280000-
BALTIMORE METRO

CITY           SKY/WX    TMP DP  RH WIND       PRES   REMARKS
BWI AIRPORT    PTCLDY    86  66  51 W5        29.91F
MD SCIENCE CTR   N/A     87  65  47 MISG      29.91F
MARTIN STATE   PTCLDY    82  73  74 SE3       29.92
ANNAPOLIS      CLEAR     81  67  62 S5        29.91F
FORT MEADE*    CLEAR     79  70  73 CALM      29.94F

$$

MDZ012-015-019>023-280000-
MARYLAND EASTERN SHORE

CITY           SKY/WX    TMP DP  RH WIND       PRES   REMARKS
OCEAN CITY     CLEAR     75  63  66 S3        29.94F
SALISBURY      CLEAR     81  67  62 S5        29.93F
BAY BRIDGE AP*   N/A     82  63  51 S3        29.92F
CAMBRIDGE*     CLEAR     81  64  57 CALM      29.92F
EASTON*        CLEAR     84  64  51 CALM      29.95F

$$

MDZ017>025-280000-
SOUTHERN MARYLAND

CITY           SKY/WX    TMP DP  RH WIND       PRES   REMARKS
PATUXENT RIVER PTCLDY    81  63  54 S5        29.92F
ST INIGOES     CLEAR     80  65  59 S3        29.93F
LEONARDTOWN*   CLEAR     82  59  44 CALM      29.94F

$$

MDZ003>005-280000-
NORTH CENTRAL MARYLAND

CITY           SKY/WX    TMP DP  RH WIND       PRES   REMARKS
FREDERICK*     CLEAR     84  73  70 CALM      29.95F HX  91
HAGERSTOWN APT CLEAR     84  68  58 SW3       29.94F
WESTMINSTER*   PTCLDY    84  72  65 SW3       29.95F

$$

MDZ501>502-280000-
WESTERN MARYLAND

CITY           SKY/WX    TMP DP  RH WIND       PRES   REMARKS
OAKLAND*       CLOUDY    68 N/A N/A W6        30.11S FOG
CUMBERLAND*    MOCLDY    86  64  48 NW5       29.99F

$$

VAZ025>031-280000-
SHENANDOAH VALLEY

CITY           SKY/WX    TMP DP  RH WIND       PRES   REMARKS
WINCHESTER*    CLEAR     82  68  61 S5        29.95S
STAUNTON*      CLEAR     84  64  50 CALM      30.01F

$$

WVZ021-048>050-054>055-280000-
EASTERN WEST VIRGINIA PANHANDLE

CITY           SKY/WX    TMP DP  RH WIND       PRES   REMARKS
MARTINSBURG    MOCLDY    83  68  60 S5        29.94F
PETERSBURG*    NOT AVBL

$$

VAZ036>039-050-280000-
CENTRAL FOOTHILLS

CITY           SKY/WX    TMP DP  RH WIND       PRES   REMARKS
CHARLOTTESVILL CLEAR     82  67  60 S3        29.96F
ORANGE*        CLEAR     82  68  61 CALM      29.97S

$$

VAZ055>057-280000-
NORTH AND CENTRAL PIEDMONT

CITY           SKY/WX    TMP DP  RH WIND       PRES   REMARKS
FREDERICKSBRG* CLEAR     84  70  61 CALM      29.93F
STAFFORD*      CLEAR     80  72  76 CALM      29.97F

$$

NCZ024-NYZ072-PAZ021-071-VAZ022-071-280000-
OTHER REGIONAL OBSERVATIONS

CITY           SKY/WX    TMP DP  RH WIND       PRES   REMARKS
NEW YORK CITY  CLEAR     85  66  53 VRB3      29.89F
PHILADELPHIA   PTCLDY    86  65  49 SW12      29.90F
PITTSBURGH     MOSUNNY   81  68  64 NW12      30.00F
ROANOKE        MOSUNNY   83  59  44 SW6       30.03F
RICHMOND       PTCLDY    86  59  39 N6        29.94F
RALEIGH        PTCLDY    83  56  39 N3        29.98F

$$

ANZ530>537-280000-
MARINE OBSERVATIONS

STATION/POSITION TIME  TEMP    WIND        PRES
                       AIR SEA DIR/SP/G
                 (UTC) (F)     (DEG/KT/KT) (MB)
THOMAS PT LIGHT  2300   80 79  180/  9/ 10 1013.8F
BALT KEY BRIDGE  2300   91     240/  5/  6 1012.6F
COVE POINT       2300   80     180/  6/  7 1013.2F
LEWISETTA        2300   82 79     CALM     1013.2F
SOLOMONS ISLAND  2300      82                N/A
PINEY POINT      2300          180/  5/  6   N/A

$$




USA.gov is the U.S. government's official web portal to all federal, state and local government web resources and services.